Time,TemperatureF,DewpointF,PressureIn,WindDirection,WindDirectionDegrees,WindSpeedMPH,WindSpeedGustMPH,Humidity,HourlyPrecipIn,Conditions,Clouds,dailyrainin,SoftwareType,DateUTC
2013-08-12 00:02:00,71.0,69.0,30.03,SSE,165,6.0,-999.0,92,-99.99,,,-99.99,,2013-08-12 04:02:00,
2013-08-12 00:12:00,71.0,69.0,30.03,SSE,165,5.0,-999.0,93,-99.99,,,-99.99,,2013-08-12 04:12:00,
2013-08-12 00:22:00,71.0,69.0,30.03,SSE,165,5.0,-999.0,93,-99.99,,,-99.99,,2013-08-12 04:22:00,
2013-08-12 00:33:00,71.0,69.0,30.03,SSE,165,6.0,-999.0,94,-99.99,,,-99.99,,2013-08-12 04:33:00,
2013-08-12 00:43:00,70.0,68.0,30.02,SSE,165,5.0,-999.0,95,-99.99,,,-99.99,,2013-08-12 04:43:00,
2013-08-12 00:52:00,70.0,68.0,30.02,SSE,165,5.0,-999.0,95,-99.99,,,-99.99,,2013-08-12 04:52:00,
2013-08-12 01:02:00,70.0,69.0,30.02,SSE,165,7.0,-999.0,96,-99.99,,,-99.99,,2013-08-12 05:02:00,
2013-08-12 01:11:00,70.0,69.0,30.02,SSE,165,7.0,-999.0,96,-99.99,,,-99.99,,2013-08-12 05:11:00,
2013-08-12 01:22:00,70.0,69.0,30.03,SSE,165,6.0,-999.0,96,-99.99,,,-99.99,,2013-08-12 05:22:00,
2013-08-12 01:32:00,70.0,69.0,30.02,SSE,165,7.0,-999.0,97,-99.99,,,-99.99,,2013-08-12 05:32:00,
2013-08-12 01:43:00,70.0,69.0,30.02,SSE,165,7.0,-999.0,97,-99.99,,,-99.99,,2013-08-12 05:43:00,
2013-08-12 01:52:00,70.0,69.0,30.02,SSE,165,4.0,-999.0,96,-99.99,,,-99.99,,2013-08-12 05:52:00,
2013-08-12 02:02:00,69.0,68.0,30.02,SSE,165,0.0,-999.0,97,-99.99,,,-99.99,,2013-08-12 06:02:00,
2013-08-12 02:11:00,69.0,68.0,30.03,SSE,165,0.0,-999.0,97,-99.99,,,-99.99,,2013-08-12 06:11:00,
2013-08-12 02:22:00,69.0,68.0,30.03,SSE,165,0.0,-999.0,97,-99.99,,,-99.99,,2013-08-12 06:22:00,
2013-08-12 02:32:00,69.0,68.0,30.02,SSE,165,2.0,-999.0,97,-99.99,,,-99.99,,2013-08-12 06:32:00,
2013-08-12 02:42:00,69.0,68.0,30.01,SSE,165,2.0,-999.0,97,-99.99,,,-99.99,,2013-08-12 06:42:00,
2013-08-12 02:52:00,69.0,68.0,30.01,SSE,165,2.0,-999.0,97,-99.99,,,-99.99,,2013-08-12 06:52:00,
2013-08-12 03:01:00,69.0,68.0,30.00,SSE,165,5.0,-999.0,97,-99.99,,,-99.99,,2013-08-12 07:01:00,
2013-08-12 03:12:00,69.0,68.0,30.00,SSE,165,1.0,-999.0,97,-99.99,,,-99.99,,2013-08-12 07:12:00,
2013-08-12 03:22:00,69.0,68.0,30.00,SSE,165,1.0,-999.0,97,-99.99,,,-99.99,,2013-08-12 07:22:00,
2013-08-12 03:33:00,69.0,68.0,30.00,SSE,165,2.0,-999.0,97,-99.99,,,-99.99,,2013-08-12 07:33:00,
2013-08-12 03:43:00,69.0,68.0,29.99,SSE,165,2.0,-999.0,98,-99.99,,,-99.99,,2013-08-12 07:43:00,
2013-08-12 03:53:00,69.0,68.0,29.99,SSE,165,2.0,-999.0,98,-99.99,,,-99.99,,2013-08-12 07:53:00,
2013-08-12 04:02:00,69.0,68.0,29.99,SSE,165,0.0,-999.0,97,-99.99,,,-99.99,,2013-08-12 08:02:00,
2013-08-12 04:12:00,69.0,68.0,29.99,SSE,165,0.0,-999.0,97,-99.99,,,-99.99,,2013-08-12 08:12:00,
2013-08-12 04:22:00,69.0,68.0,29.98,SSE,165,0.0,-999.0,97,-99.99,,,-99.99,,2013-08-12 08:22:00,
2013-08-12 04:33:00,69.0,68.0,29.98,SSE,165,0.0,-999.0,98,-99.99,,,-99.99,,2013-08-12 08:33:00,
2013-08-12 04:43:00,68.0,67.0,29.98,SSE,165,1.0,-999.0,97,-99.99,,,-99.99,,2013-08-12 08:43:00,
2013-08-12 04:53:00,68.0,67.0,29.98,SSE,165,1.0,-999.0,97,-99.99,,,-99.99,,2013-08-12 08:53:00,
2013-08-12 05:02:00,68.0,67.0,29.98,SSE,165,0.0,-999.0,98,-99.99,,,-99.99,,2013-08-12 09:02:00,
2013-08-12 05:11:00,68.0,67.0,29.99,SSE,165,0.0,-999.0,97,-99.99,,,-99.99,,2013-08-12 09:11:00,
2013-08-12 05:22:00,68.0,67.0,29.99,SSE,165,0.0,-999.0,97,-99.99,,,-99.99,,2013-08-12 09:22:00,
2013-08-12 05:32:00,68.0,67.0,29.99,SSE,165,0.0,-999.0,98,-99.99,,,-99.99,,2013-08-12 09:32:00,
2013-08-12 05:43:00,68.0,67.0,29.98,SSE,165,0.0,-999.0,98,-99.99,,,-99.99,,2013-08-12 09:43:00,
2013-08-12 05:53:00,68.0,67.0,29.98,SSE,165,0.0,-999.0,98,-99.99,,,-99.99,,2013-08-12 09:53:00,
2013-08-12 06:02:00,68.0,67.0,29.99,SSE,165,0.0,-999.0,98,-99.99,,,-99.99,,2013-08-12 10:02:00,
2013-08-12 06:12:00,68.0,67.0,29.99,SSE,165,0.0,-999.0,98,-99.99,,,-99.99,,2013-08-12 10:12:00,
2013-08-12 06:22:00,68.0,67.0,30.00,SSE,165,0.0,-999.0,98,-99.99,,,-99.99,,2013-08-12 10:22:00,
2013-08-12 06:32:00,68.0,67.0,29.99,SSE,165,0.0,-999.0,98,-99.99,,,-99.99,,2013-08-12 10:32:00,
2013-08-12 06:43:00,68.0,67.0,30.00,SSE,165,1.0,-999.0,98,-99.99,,,-99.99,,2013-08-12 10:43:00,
2013-08-12 06:52:00,68.0,67.0,30.00,SSE,165,1.0,-999.0,98,-99.99,,,-99.99,,2013-08-12 10:52:00,
2013-08-12 07:02:00,68.0,67.0,30.00,SSE,165,0.0,-999.0,98,-99.99,,,-99.99,,2013-08-12 11:02:00,
2013-08-12 07:12:00,68.0,67.0,30.00,SSE,165,0.0,-999.0,98,-99.99,,,-99.99,,2013-08-12 11:12:00,
2013-08-12 07:22:00,68.0,67.0,30.00,SSE,165,0.0,-999.0,98,-99.99,,,-99.99,,2013-08-12 11:22:00,
2013-08-12 07:32:00,69.0,68.0,30.00,SSE,165,0.0,-999.0,98,-99.99,,,-99.99,,2013-08-12 11:32:00,
2013-08-12 07:42:00,69.0,68.0,30.00,SSE,165,0.0,-999.0,98,-99.99,,,-99.99,,2013-08-12 11:42:00,
2013-08-12 07:53:00,69.0,68.0,30.01,SSE,165,1.0,-999.0,98,-99.99,,,-99.99,,2013-08-12 11:53:00,
2013-08-12 08:02:00,69.0,68.0,30.01,SSE,165,1.0,-999.0,98,-99.99,,,-99.99,,2013-08-12 12:02:00,
2013-08-12 08:12:00,69.0,68.0,30.01,SSE,165,0.0,-999.0,98,-99.99,,,-99.99,,2013-08-12 12:12:00,
2013-08-12 08:22:00,69.0,68.0,30.00,SSE,165,0.0,-999.0,98,-99.99,,,-99.99,,2013-08-12 12:22:00,
2013-08-12 08:32:00,70.0,69.0,30.00,SSE,165,0.0,-999.0,98,-99.99,,,-99.99,,2013-08-12 12:32:00,
2013-08-12 08:43:00,70.0,69.0,30.00,SSE,165,0.0,-999.0,98,-99.99,,,-99.99,,2013-08-12 12:43:00,
2013-08-12 08:52:00,71.0,70.0,30.00,SSE,165,0.0,-999.0,98,-99.99,,,-99.99,,2013-08-12 12:52:00,
2013-08-12 09:02:00,71.0,70.0,30.00,SSE,165,0.0,-999.0,97,-99.99,,,-99.99,,2013-08-12 13:02:00,
2013-08-12 09:12:00,71.0,70.0,30.00,SSE,165,0.0,-999.0,97,-99.99,,,-99.99,,2013-08-12 13:12:00,
2013-08-12 09:33:00,71.0,70.0,29.99,SSE,165,2.0,-999.0,96,-99.99,,,-99.99,,2013-08-12 13:33:00,
2013-08-12 09:43:00,73.0,71.0,29.99,SSE,165,0.0,-999.0,95,-99.99,,,-99.99,,2013-08-12 13:43:00,
2013-08-12 09:53:00,73.0,71.0,29.99,SSE,165,2.0,-999.0,92,-99.99,,,-99.99,,2013-08-12 13:53:00,
2013-08-12 10:02:00,73.0,70.0,30.00,SSE,165,2.0,-999.0,91,-99.99,,,-99.99,,2013-08-12 14:02:00,
2013-08-12 10:11:00,73.0,70.0,30.00,SSE,165,2.0,-999.0,91,-99.99,,,-99.99,,2013-08-12 14:11:00,
2013-08-12 10:42:00,74.0,70.0,30.00,SSE,165,1.0,-999.0,88,-99.99,,,-99.99,,2013-08-12 14:42:00,
2013-08-12 10:53:00,74.0,71.0,30.00,SSE,165,2.0,-999.0,89,-99.99,,,-99.99,,2013-08-12 14:53:00,
2013-08-12 11:02:00,74.0,71.0,30.00,SSE,165,2.0,-999.0,89,-99.99,,,-99.99,,2013-08-12 15:02:00,
2013-08-12 11:12:00,74.0,71.0,30.00,SSE,165,1.0,-999.0,89,-99.99,,,-99.99,,2013-08-12 15:12:00,
2013-08-12 11:22:00,75.0,71.0,30.00,SSE,165,2.0,-999.0,88,-99.99,,,-99.99,,2013-08-12 15:22:00,
2013-08-12 11:33:00,75.0,71.0,30.00,SSE,165,2.0,-999.0,88,-99.99,,,-99.99,,2013-08-12 15:33:00,
2013-08-12 11:43:00,76.0,71.0,29.99,SSE,165,1.0,-999.0,85,-99.99,,,-99.99,,2013-08-12 15:43:00,
2013-08-12 11:52:00,76.0,70.0,29.99,SSE,165,2.0,-999.0,83,-99.99,,,-99.99,,2013-08-12 15:52:00,
2013-08-12 12:01:00,76.0,70.0,29.99,SSE,165,2.0,-999.0,83,-99.99,,,-99.99,,2013-08-12 16:01:00,
2013-08-12 12:11:00,77.0,71.0,29.99,SSE,165,2.0,-999.0,82,-99.99,,,-99.99,,2013-08-12 16:11:00,
2013-08-12 12:22:00,76.0,70.0,29.98,SSE,165,2.0,-999.0,83,-99.99,,,-99.99,,2013-08-12 16:22:00,
2013-08-12 12:33:00,76.0,70.0,29.98,SSE,165,2.0,-999.0,83,-99.99,,,-99.99,,2013-08-12 16:33:00,
2013-08-12 12:43:00,77.0,72.0,29.98,SSE,165,4.0,-999.0,84,-99.99,,,-99.99,,2013-08-12 16:43:00,
2013-08-12 12:53:00,78.0,71.0,29.99,SSE,165,2.0,-999.0,78,-99.99,,,-99.99,,2013-08-12 16:53:00,
2013-08-12 13:02:00,78.0,71.0,29.99,SSE,165,2.0,-999.0,78,-99.99,,,-99.99,,2013-08-12 17:02:00,
2013-08-12 13:11:00,79.0,70.0,29.99,SSE,165,2.0,-999.0,75,-99.99,,,-99.99,,2013-08-12 17:11:00,
2013-08-12 13:32:00,80.0,71.0,29.98,SSE,165,2.0,-999.0,75,-99.99,,,-99.99,,2013-08-12 17:32:00,
2013-08-12 13:43:00,81.0,70.0,29.98,SSE,165,2.0,-999.0,70,-99.99,,,-99.99,,2013-08-12 17:43:00,
2013-08-12 13:52:00,81.0,71.0,29.99,SSE,165,2.0,-999.0,72,-99.99,,,-99.99,,2013-08-12 17:52:00,
2013-08-12 14:02:00,80.0,70.0,29.98,SSE,165,4.0,-999.0,72,-99.99,,,-99.99,,2013-08-12 18:02:00,
2013-08-12 14:11:00,80.0,70.0,29.98,SSE,165,4.0,-999.0,72,-99.99,,,-99.99,,2013-08-12 18:11:00,
2013-08-12 14:32:00,79.0,69.0,29.98,SSE,165,3.0,-999.0,71,-99.99,,,-99.99,,2013-08-12 18:32:00,
2013-08-12 14:43:00,80.0,70.0,29.97,SSE,165,2.0,-999.0,71,-99.99,,,-99.99,,2013-08-12 18:43:00,
2013-08-12 14:52:00,81.0,70.0,29.97,West,259,5.0,-999.0,69,-99.99,,,-99.99,,2013-08-12 18:52:00,
2013-08-12 15:02:00,81.0,70.0,29.97,West,259,5.0,-999.0,69,-99.99,,,-99.99,,2013-08-12 19:02:00,
2013-08-12 15:11:00,80.0,68.0,29.98,West,261,4.0,-999.0,67,-99.99,,,-99.99,,2013-08-12 19:11:00,
2013-08-12 15:22:00,80.0,68.0,29.97,West,267,5.0,-999.0,68,-99.99,,,-99.99,,2013-08-12 19:22:00,
2013-08-12 15:33:00,80.0,68.0,29.97,West,267,5.0,-999.0,68,-99.99,,,-99.99,,2013-08-12 19:33:00,
2013-08-12 15:43:00,81.0,69.0,29.97,West,268,3.0,-999.0,67,-99.99,,,-99.99,,2013-08-12 19:43:00,
2013-08-12 15:52:00,80.0,67.0,29.97,West,268,2.0,-999.0,65,-99.99,,,-99.99,,2013-08-12 19:52:00,
2013-08-12 16:02:00,80.0,67.0,29.97,West,268,2.0,-999.0,65,-99.99,,,-99.99,,2013-08-12 20:02:00,
2013-08-12 16:11:00,80.0,68.0,29.96,West,268,3.0,-999.0,67,-99.99,,,-99.99,,2013-08-12 20:11:00,
2013-08-12 16:22:00,81.0,68.0,29.96,West,268,4.0,-999.0,64,-99.99,,,-99.99,,2013-08-12 20:22:00,
2013-08-12 16:32:00,81.0,67.0,29.96,West,268,4.0,-999.0,62,-99.99,,,-99.99,,2013-08-12 20:32:00,
2013-08-12 16:42:00,81.0,67.0,29.96,West,268,4.0,-999.0,62,-99.99,,,-99.99,,2013-08-12 20:42:00,
2013-08-12 16:52:00,81.0,67.0,29.95,West,268,5.0,-999.0,63,-99.99,,,-99.99,,2013-08-12 20:52:00,
2013-08-12 17:22:00,82.0,67.0,29.95,West,268,2.0,-999.0,61,-99.99,,,-99.99,,2013-08-12 21:22:00,
2013-08-12 17:32:00,82.0,67.0,29.95,West,268,2.0,-999.0,61,-99.99,,,-99.99,,2013-08-12 21:32:00,
2013-08-12 17:43:00,83.0,66.0,29.94,West,268,1.0,-999.0,57,-99.99,,,-99.99,,2013-08-12 21:43:00,
2013-08-12 17:52:00,82.0,66.0,29.94,West,268,2.0,-999.0,58,-99.99,,,-99.99,,2013-08-12 21:52:00,
2013-08-12 18:02:00,82.0,66.0,29.94,West,268,2.0,-999.0,58,-99.99,,,-99.99,,2013-08-12 22:02:00,
2013-08-12 18:11:00,82.0,68.0,29.94,West,268,1.0,-999.0,62,-99.99,,,-99.99,,2013-08-12 22:11:00,
2013-08-12 18:22:00,82.0,67.0,29.94,West,268,0.0,-999.0,61,-99.99,,,-99.99,,2013-08-12 22:22:00,
2013-08-12 18:32:00,83.0,68.0,29.93,West,268,0.0,-999.0,61,-99.99,,,-99.99,,2013-08-12 22:32:00,
2013-08-12 18:43:00,83.0,68.0,29.93,West,268,0.0,-999.0,61,-99.99,,,-99.99,,2013-08-12 22:43:00,
2013-08-12 18:53:00,83.0,68.0,29.93,West,268,0.0,-999.0,61,-99.99,,,-99.99,,2013-08-12 22:53:00,
2013-08-12 19:02:00,83.0,69.0,29.93,West,268,0.0,-999.0,62,-99.99,,,-99.99,,2013-08-12 23:02:00,
2013-08-12 19:11:00,83.0,69.0,29.93,West,268,0.0,-999.0,62,-99.99,,,-99.99,,2013-08-12 23:11:00,
2013-08-12 19:22:00,83.0,70.0,29.93,West,268,0.0,-999.0,66,-99.99,,,-99.99,,2013-08-12 23:22:00,
2013-08-12 19:54:00,80.0,69.0,29.93,West,268,0.0,-999.0,70,-99.99,,,-99.99,,2013-08-12 23:54:00,
2013-08-12 20:12:00,79.0,68.0,29.94,West,268,0.0,-999.0,70,-99.99,,,-99.99,,2013-08-13 00:12:00,
2013-08-12 20:24:00,78.0,69.0,29.94,West,268,0.0,-999.0,74,-99.99,,,-99.99,,2013-08-13 00:24:00,
2013-08-12 20:45:00,77.0,68.0,29.93,West,268,0.0,-999.0,74,-99.99,,,-99.99,,2013-08-13 00:45:00,
2013-08-12 20:54:00,76.0,68.0,29.93,West,268,0.0,-999.0,76,-99.99,,,-99.99,,2013-08-13 00:54:00,
2013-08-12 21:13:00,75.0,68.0,29.93,West,268,1.0,-999.0,78,-99.99,,,-99.99,,2013-08-13 01:13:00,
2013-08-12 21:23:00,74.0,67.0,29.93,West,268,3.0,-999.0,80,-99.99,,,-99.99,,2013-08-13 01:23:00,
2013-08-12 21:42:00,74.0,67.0,29.93,West,268,2.0,-999.0,80,-99.99,,,-99.99,,2013-08-13 01:42:00,
2013-08-12 21:55:00,74.0,67.0,29.93,West,268,3.0,-999.0,80,-99.99,,,-99.99,,2013-08-13 01:55:00,
2013-08-12 22:11:00,73.0,67.0,29.93,West,268,2.0,-999.0,82,-99.99,,,-99.99,,2013-08-13 02:11:00,
2013-08-12 22:22:00,72.0,68.0,29.93,West,268,3.0,-999.0,86,-99.99,,,-99.99,,2013-08-13 02:22:00,
2013-08-12 22:43:00,71.0,67.0,29.92,West,268,3.0,-999.0,87,-99.99,,,-99.99,,2013-08-13 02:43:00,
2013-08-12 22:52:00,72.0,68.0,29.93,West,268,4.0,-999.0,86,-99.99,,,-99.99,,2013-08-13 02:52:00,
2013-08-12 23:22:00,73.0,67.0,29.92,West,268,5.0,-999.0,81,-99.99,,,-99.99,,2013-08-13 03:22:00,
2013-08-12 23:54:00,72.0,67.0,29.92,West,268,5.0,-999.0,84,-99.99,,,-99.99,,2013-08-13 03:54:00,